Location: Stara Lesna
(49.1528°N, 20.2911°E)
Time: 10:05:54
(UTC+02:00)

Cosmos 1943 - Pass Details

Date: 13 July 2020
Orbit: 835 x 848 km, 71.0° (Epoch: 05 August)

Event Time Altitude Azimuth Distance (km) Brightness Sun altitude
Exits shadow 00:53:13 22° 228° (SW) 1,753 4.5 -19.0°
Maximum altitude 00:56:49 61° 302° (WNW) 954 3.6 -19.0°
Drops below altitude 10° 01:02:27 10° 23° (NNE) 2,469 6.7 -18.9°
Sets 01:04:56 0° 27° (NNE) 3,405 7.6 -18.9°
